Torna al catalogo

STARLINK-32773

AttivoComunicazioniVLEO
NORAD 62571·PAYLOAD·🇺🇸 United States

Lanciato Jan 10, 2025 da Cape Canaveral Space Force Station

Loading…

Prossimi Passaggi (prossime 24 ore)

TLE

AggiornatoSource: CelesTrak SupGP

Epoca: Sep 14, 2026, 15:20 UTC

1 62571C 25006T   26257.63937500  .00046909  00000+0  16991-2 0  2571
2 62571  43.0025 305.3389 0001322 280.8991  12.6175 15.27554080    13

Traccia STARLINK-32773 in tempo reale con AllMySat

Download on the App Store